Location: Bo?a Wola
(50.4192°N, 19.7966°E)
Time: 14:54:14
(UTC+00:00)

ALOS - Visible Passes

Search period start: 14 September 2024 00:00
Search period end: 24 September 2024 00:00
Orbit: 671 x 673 km, 98.0° (Epoch: 14 September)

Date Brightness Start Highest point End Pass type
(mag) Time Alt. Az. Time Alt. Az. Time Alt. Az.
14 Sep 3.4 00:53:30 10° NNE 00:57:45 35° E 00:58:04 35° ESE visible
14 Sep 3.1 02:30:45 10° N 02:34:51 32° WNW 02:36:19 26° W visible
15 Sep 2.3 01:26:36 10° NNE 01:31:13 71° ESE 01:31:40 66° SE visible
15 Sep 3.8 03:04:44 10° NNW 03:07:52 18° WNW 03:09:54 14° W visible
16 Sep 4.4 00:23:38 10° NE 00:26:59 20° E 00:27:01 20° E visible
16 Sep 2.3 01:59:57 10° N 02:04:30 59° WNW 02:05:15 51° WSW visible
16 Sep 4.4 03:40:05 10° NW 03:40:43 10° NW 03:41:21 10° WNW visible
17 Sep 3.3 00:56:15 10° NNE 01:00:34 37° E 01:00:36 37° E visible
17 Sep 3.2 02:33:35 10° N 02:37:37 31° WNW 02:38:50 27° W visible
17 Sep 5.1 23:55:22 10° ENE 23:55:54 10° E 23:55:54 10° E visible
18 Sep 2.2 01:29:20 10° NNE 01:33:58 76° ESE 01:34:09 74° SE visible
18 Sep 3.9 03:07:34 10° NNW 03:10:35 17° WNW 03:12:22 14° W visible
19 Sep 4.3 00:26:15 10° NE 00:29:27 21° E 00:29:27 21° E visible
19 Sep 2.3 02:02:41 10° N 02:07:12 55° WNW 02:07:41 52° W visible
20 Sep 3.3 00:58:53 10° NNE 01:02:58 39° E 01:02:58 39° E visible
20 Sep 3.2 02:36:17 10° N 02:40:15 29° WNW 02:41:12 27° W visible
20 Sep 5.1 23:57:26 10° ENE 23:58:14 11° E 23:58:14 11° E visible
21 Sep 2.2 01:31:56 10° NNE 01:36:28 79° E 01:36:28 79° E visible
21 Sep 3.9 03:10:15 10° NNW 03:13:09 17° WNW 03:14:42 14° W visible
22 Sep 4.4 00:28:44 10° NE 00:31:44 21° E 00:31:44 21° E visible
22 Sep 2.4 02:05:16 10° N 02:09:45 52° WNW 02:09:58 52° W visible
23 Sep 3.4 01:01:23 10° NNE 01:05:12 40° ENE 01:05:12 40° ENE visible
23 Sep 3.2 02:38:50 10° N 02:42:45 28° WNW 02:43:26 27° WNW visible
